GW4091 Weather Reports


Display with metric or nautical units.
time (UTC)temp
F
wind
direction
speed
MPH
gust
MPH
rain 1hr
in
rain 24hr
in
rain mn
in
humidity
%
barometer
mb
20260906110007 74 360 0.0 2.0 0.00 0.00 0.00 89 1011.1
20260906104530 74 322 0.0 2.0 0.00 0.00 0.00 89 1010.9
20260906103008 74 352 0.0 2.0 0.00 0.00 0.00 88 1010.8
20260906101508 74 321 0.0 1.0 0.00 0.00 0.00 88 1010.6
20260906100011 74 38 0.0 2.0 0.00 0.00 0.00 88 1010.4
20260906094509 74 71 0.0 1.0 0.00 0.00 0.00 88 1010.6
20260906093010 74 126 0.0 2.0 0.00 0.00 0.00 88 1010.2
20260906091515 74 88 0.0 0.0 0.00 0.00 0.00 87 1010.2
20260906090012 74 11 0.0 3.0 0.00 0.00 0.00 87 1010.1
20260906084512 75 5 0.0 2.0 0.00 0.00 0.00 86 1010.0
20260906083013 75 291 0.0 2.0 0.00 0.00 0.00 86 1010.2
20260906081515 75 291 0.0 0.0 0.00 0.00 0.00 86 1010.2
20260906080024 75 278 0.0 3.0 0.00 0.00 0.00 86 1010.4
20260906074516 75 326 1.0 4.0 0.00 0.00 0.00 86 1010.6
20260906073018 75 30 0.0 2.0 0.00 0.00 0.00 86 1010.4
20260906071516 75 349 0.0 2.0 0.00 0.00 0.00 85 1010.6
20260906070019 75 349 0.0 2.0 0.00 0.00 0.00 85 1010.9
20260906064518 76 306 0.0 0.0 0.00 0.00 0.00 85 1010.9
20260906063016 76 39 0.0 1.0 0.00 0.00 0.00 84 1011.1
20260906061525 76 39 0.0 1.0 0.00 0.00 0.00 83 1011.1
20260906060020 77 44 0.0 2.0 0.00 0.00 0.00 82 1011.0
20260906054519 77 32 0.0 2.0 0.00 0.00 0.00 81 1011.1
20260906053020 77 32 0.0 0.0 0.00 0.00 0.00 81 1011.0
20260906051526 77 32 0.0 0.0 0.00 0.00 0.00 81 1011.3
20260906050023 77 32 0.0 2.0 0.00 0.00 0.00 81 1011.4
20260906044519 78 44 0.0 2.0 0.00 0.00 0.00 81 1011.6
20260906043630 78 338 0.0 2.0 0.00 0.00 0.00 82 1011.7
20260906043624 79 33 0.0 2.0 0.00 0.00 0.00 81 1011.7
20260906040027 79 331 2.0 4.0 0.00 0.00 0.00 80 1011.7
20260906034503 80 38 0.0 5.0 0.00 0.00 0.00 80 1011.7
20260906033007 81 325 1.0 5.0 0.00 0.00 0.00 79 1011.6
20260906031507 81 304 0.0 2.0 0.00 0.00 0.00 79 1011.5
20260906030029 82 269 0.0 2.0 0.00 0.00 0.00 80 1011.7
20260906024516 82 176 0.0 2.0 0.00 0.00 0.00 82 1011.5
20260906023004 83 176 0.0 2.0 0.00 0.00 0.00 84 1011.4
20260906021504 83 202 1.0 6.0 0.00 0.00 0.00 84 1011.0
20260906020011 83 317 0.0 6.0 0.00 0.00 0.00 86 1011.2
20260906014531 83 165 0.0 5.0 0.00 0.00 0.00 86 1010.4
20260906013031 84 172 2.0 7.0 0.00 0.00 0.00 86 1009.0
20260906011503 84 169 1.0 2.0 0.00 0.00 0.00 84 1009.9
20260906010004 84 213 0.0 3.0 0.00 0.00 0.00 85 1010.8
20260906004513 84 261 1.0 4.0 0.00 0.00 0.00 85 1011.5
20260906003017 84 203 2.0 6.0 0.00 0.00 0.00 84 1011.3
20260906001524 85 202 1.0 8.0 0.00 0.00 0.00 83 1011.4
20260906000009 85 175 2.0 3.0 0.00 0.00 0.00 82 1011.5
20260905234509 86 175 4.0 7.0 0.00 0.00 0.00 80 1011.3
20260905233039 87 175 2.0 4.0 0.00 0.00 0.00 79 1011.4
20260905231523 88 175 0.0 7.0 0.00 0.00 0.00 77 1011.4
20260905230031 88 175 3.0 7.0 0.00 0.00 0.00 76 1011.1
20260905224545 89 161 4.0 6.0 0.00 0.00 0.00 74 1011.0
20260905223015 90 173 3.0 6.0 0.00 0.00 0.00 73 1010.9
20260905221518 90 180 5.0 11.0 0.00 0.00 0.00 72 1010.6
20260905220028 91 186 4.0 10.0 0.00 0.00 0.00 70 1010.5
20260905214530 92 207 3.0 8.0 0.00 0.00 0.00 68 1010.4
20260905213010 93 207 2.0 7.0 0.00 0.00 0.00 64 1010.4
20260905211519 95 21 1.0 2.0 0.00 0.00 0.00 54 1010.3
20260905210022 94 17 1.0 3.0 0.00 0.00 0.00 54 1010.1
20260905204536 94 52 3.0 6.0 0.00 0.00 0.00 54 1010.1
20260905203030 94 83 2.0 4.0 0.00 0.00 0.00 56 1010.0
20260905201515 93 161 1.0 4.0 0.00 0.00 0.00 58 1010.1
20260905200029 93 213 2.0 4.0 0.00 0.00 0.00 58 1010.1
20260905194530 93 309 1.0 5.0 0.00 0.00 0.00 59 1010.3
20260905193029 93 181 1.0 4.0 0.00 0.00 0.00 60 1010.4
20260905191534 92 5 2.0 8.0 0.00 0.00 0.00 60 1010.8
20260905190016 93 169 1.0 4.0 0.00 0.00 0.00 60 1011.1
20260905185136 92 271 0.0 7.0 0.00 0.00 0.00 61 1011.5
20260905185130 91 268 1.0 4.0 0.00 0.00 0.00 64 1011.7
20260905181546 92 175 1.0 3.0 0.00 0.00 0.00 65 1011.9
20260905180019 91 181 1.0 8.0 0.00 0.00 0.00 65 1012.0
20260905174519 91 175 3.0 7.0 0.00 0.00 0.00 64 1012.1
20260905173028 90 175 1.0 3.0 0.00 0.00 0.00 65 1012.3
20260905171531 90 238 1.0 4.0 0.00 0.00 0.00 66 1012.6
20260905170033 90 302 1.0 7.0 0.00 0.00 0.00 68 1012.8
20260905164535 90 300 2.0 4.0 0.00 0.00 0.00 68 1013.0
20260905163025 88 255 2.0 6.0 0.00 0.00 0.00 72 1013.4
20260905161532 89 226 0.0 6.0 0.00 0.00 0.00 68 1013.6
20260905160034 88 317 2.0 3.0 0.00 0.00 0.00 72 1013.8
20260905154554 87 304 2.0 6.0 0.00 0.00 0.00 74 1014.0
20260905153022 87 251 1.0 4.0 0.00 0.00 0.00 73 1014.2
20260905151505 87 308 0.0 6.0 0.00 0.00 0.00 77 1014.1
20260905150008 85 270 1.0 3.0 0.00 0.00 0.00 78 1014.3
20260905144510 85 288 1.0 5.0 0.00 0.00 0.00 80 1014.3
20260905143017 84 216 1.0 4.0 0.00 0.00 0.00 81 1014.3
20260905141527 83 294 2.0 6.0 0.00 0.00 0.00 83 1014.3
20260905140006 83 177 1.0 3.0 0.00 0.00 0.00 85 1014.3
20260905134509 83 177 1.0 6.0 0.00 0.00 0.00 86 1014.3
20260905133040 82 231 2.0 6.0 0.00 0.00 0.00 87 1014.4
20260905131538 81 217 1.0 3.0 0.00 0.00 0.00 88 1014.4
20260905130039 81 176 0.0 3.0 0.00 0.00 0.00 90 1014.5
20260905124507 80 176 0.0 2.0 0.00 0.00 0.00 91 1014.4
20260905123014 79 176 0.0 2.0 0.00 0.00 0.00 93 1014.3
20260905121533 78 176 0.0 3.0 0.00 0.00 0.00 93 1014.3
20260905120023 77 176 1.0 2.0 0.00 0.00 0.00 93 1014.2
20260905114538 77 176 0.0 0.0 0.00 0.00 0.00 93 1014.2
20260905113044 77 176 0.0 0.0 0.00 0.00 0.00 92 1014.1
20260905111558 77 176 0.0 0.0 0.00 0.00 0.00 92 1014.1